| time (UTC) | temp C | wind direction | speed KPH | gust KPH | rain 1hr cm | rain 24hr cm | rain mn cm | humidity % | barometer mb |
| 20260904015608 | 14 | 324 | 0.0 | 4.8 | 0.00 | 0.03 | 0.03 | 61 | 1021.5 |
| 20260904015107 | 14 | 292 | 1.6 | 4.8 | 0.00 | 0.03 | 0.03 | 60 | 1021.4 |
| 20260904014607 | 14 | 313 | 1.6 | 6.4 | 0.00 | 0.03 | 0.03 | 60 | 1021.3 |
| 20260904014115 | 14 | 305 | 1.6 | 6.4 | 0.00 | 0.03 | 0.03 | 60 | 1021.4 |
| 20260904013608 | 14 | 300 | 1.6 | 4.8 | 0.00 | 0.03 | 0.03 | 60 | 1021.4 |
| 20260904013109 | 14 | 299 | 0.0 | 6.4 | 0.00 | 0.03 | 0.03 | 61 | 1021.5 |
| 20260904012608 | 14 | 11 | 1.6 | 6.4 | 0.00 | 0.03 | 0.03 | 60 | 1021.4 |
| 20260904012109 | 14 | 296 | 1.6 | 8.0 | 0.00 | 0.03 | 0.03 | 60 | 1021.5 |
| 20260904011836 | 14 | 319 | 3.2 | 16.1 | 0.00 | 0.03 | 0.03 | 60 | 1021.5 |
| 20260904011107 | 14 | 219 | 3.2 | 16.1 | 0.00 | 0.03 | 0.03 | 60 | 1021.4 |
| 20260904010608 | 14 | 302 | 3.2 | 8.0 | 0.00 | 0.03 | 0.03 | 60 | 1021.4 |
| 20260904010106 | 14 | 312 | 3.2 | 6.4 | 0.00 | 0.03 | 0.03 | 60 | 1021.4 |
| 20260904005608 | 14 | 316 | 1.6 | 9.7 | 0.00 | 0.03 | 0.03 | 60 | 1021.4 |
| 20260904005108 | 14 | 293 | 1.6 | 9.7 | 0.00 | 0.03 | 0.03 | 60 | 1021.4 |
| 20260904004835 | 14 | 324 | 1.6 | 4.8 | 0.00 | 0.03 | 0.03 | 59 | 1021.4 |
| 20260904004107 | 14 | 306 | 1.6 | 6.4 | 0.00 | 0.03 | 0.03 | 60 | 1021.4 |
| 20260904003830 | 14 | 293 | 3.2 | 6.4 | 0.00 | 0.03 | 0.03 | 61 | 1021.4 |
| 20260904003106 | 14 | 300 | 3.2 | 6.4 | 0.00 | 0.03 | 0.03 | 62 | 1021.4 |
| 20260904002607 | 14 | 298 | 1.6 | 6.4 | 0.00 | 0.03 | 0.03 | 63 | 1021.4 |
| 20260904002107 | 14 | 300 | 3.2 | 6.4 | 0.00 | 0.03 | 0.03 | 63 | 1021.4 |
| 20260904001606 | 15 | 320 | 1.6 | 4.8 | 0.00 | 0.03 | 0.03 | 62 | 1021.4 |
| 20260904001109 | 15 | 312 | 1.6 | 4.8 | 0.00 | 0.03 | 0.03 | 62 | 1021.4 |
| 20260904001100 | 15 | 306 | 1.6 | 4.8 | 0.00 | 0.03 | 0.03 | 61 | 1021.4 |
| 20260904000108 | 15 | 312 | 1.6 | 4.8 | 0.00 | 0.03 | 0.03 | 61 | 1021.4 |
| 20260903235610 | 15 | 300 | 1.6 | 4.8 | 0.00 | 0.03 | 0.03 | 61 | 1021.4 |
| 20260903235105 | 15 | 329 | 1.6 | 4.8 | 0.00 | 0.03 | 0.03 | 61 | 1021.4 |
| 20260903234608 | 15 | 303 | 3.2 | 4.8 | 0.00 | 0.03 | 0.03 | 61 | 1021.5 |
| 20260903234106 | 15 | 351 | 3.2 | 9.7 | 0.00 | 0.03 | 0.03 | 58 | 1021.4 |
| 20260903233606 | 15 | 324 | 3.2 | 9.7 | 0.00 | 0.03 | 0.03 | 57 | 1021.4 |
| 20260903233106 | 15 | 331 | 3.2 | 9.7 | 0.00 | 0.03 | 0.03 | 56 | 1021.4 |
| 20260903232606 | 15 | 290 | 1.6 | 9.7 | 0.00 | 0.03 | 0.03 | 57 | 1021.5 |
| 20260903232105 | 15 | 298 | 3.2 | 9.7 | 0.00 | 0.03 | 0.03 | 56 | 1021.4 |
| 20260903231606 | 15 | 355 | 3.2 | 9.7 | 0.00 | 0.03 | 0.03 | 56 | 1021.5 |
| 20260903231105 | 15 | 309 | 3.2 | 9.7 | 0.00 | 0.03 | 0.03 | 55 | 1021.5 |
| 20260903230610 | 15 | 3 | 1.6 | 8.0 | 0.00 | 0.03 | 0.03 | 57 | 1021.5 |
| 20260903230105 | 15 | 309 | 3.2 | 9.7 | 0.00 | 0.03 | 0.03 | 56 | 1021.6 |
| 20260903225601 | 15 | 331 | 3.2 | 9.7 | 0.00 | 0.03 | 0.03 | 56 | 1021.8 |
| 20260903225105 | 15 | 331 | 3.2 | 8.0 | 0.00 | 0.03 | 0.03 | 57 | 1021.6 |
| 20260903224604 | 15 | 343 | 3.2 | 8.0 | 0.00 | 0.03 | 0.03 | 58 | 1021.6 |
| 20260903224329 | 15 | 290 | 3.2 | 8.0 | 0.00 | 0.03 | 0.03 | 58 | 1021.6 |
| 20260903223604 | 15 | 306 | 3.2 | 8.0 | 0.00 | 0.03 | 0.03 | 57 | 1021.7 |
| 20260903223106 | 15 | 296 | 4.8 | 8.0 | 0.00 | 0.03 | 0.03 | 58 | 1021.6 |
| 20260903222604 | 16 | 300 | 3.2 | 8.0 | 0.00 | 0.03 | 0.03 | 56 | 1021.6 |
| 20260903222104 | 16 | 334 | 3.2 | 8.0 | 0.00 | 0.03 | 0.03 | 56 | 1021.5 |
| 20260903221601 | 16 | 319 | 3.2 | 8.0 | 0.00 | 0.03 | 0.03 | 56 | 1021.5 |
| 20260903221322 | 15 | 343 | 1.6 | 6.4 | 0.00 | 0.03 | 0.03 | 59 | 1021.4 |
| 20260903220604 | 15 | 281 | 1.6 | 9.7 | 0.00 | 0.03 | 0.03 | 60 | 1021.4 |
| 20260903215604 | 16 | 293 | 3.2 | 8.0 | 0.00 | 0.03 | 0.03 | 55 | 1021.4 |
| 20260903215549 | 17 | 48 | 6.4 | 14.5 | 0.00 | 0.03 | 0.03 | 51 | 1021.4 |
| 20260903214603 | 18 | 47 | 8.0 | 16.1 | 0.00 | 0.03 | 0.03 | 45 | 1021.4 |
| 20260903214105 | 18 | 107 | 6.4 | 16.1 | 0.00 | 0.03 | 0.03 | 41 | 1021.0 |
| 20260903213100 | 18 | 99 | 6.4 | 22.5 | 0.00 | 0.03 | 0.03 | 41 | 1021.1 |
| 20260903212559 | 18 | 130 | 8.0 | 22.5 | 0.00 | 0.03 | 0.03 | 42 | 1021.0 |
| 20260903212326 | 18 | 102 | 6.4 | 20.9 | 0.00 | 0.03 | 0.03 | 43 | 1021.0 |
| 20260903211602 | 18 | 93 | 8.0 | 24.1 | 0.00 | 0.03 | 0.03 | 43 | 1021.0 |
| 20260903211103 | 18 | 107 | 9.7 | 25.7 | 0.00 | 0.03 | 0.03 | 43 | 1020.9 |
| 20260903210602 | 18 | 99 | 11.3 | 25.7 | 0.00 | 0.03 | 0.03 | 43 | 1020.9 |
| 20260903205601 | 18 | 128 | 16.1 | 27.4 | 0.00 | 0.03 | 0.03 | 44 | 1020.8 |
| 20260903205101 | 18 | 147 | 12.9 | 22.5 | 0.00 | 0.03 | 0.03 | 43 | 1020.7 |
| 20260903204602 | 18 | 58 | 12.9 | 20.9 | 0.00 | 0.03 | 0.03 | 44 | 1020.8 |
| 20260903204540 | 18 | 121 | 9.7 | 20.9 | 0.00 | 0.03 | 0.03 | 45 | 1020.7 |
| 20260903203603 | 18 | 96 | 12.9 | 25.7 | 0.00 | 0.03 | 0.03 | 45 | 1020.7 |
| 20260903203100 | 18 | 100 | 12.9 | 25.7 | 0.00 | 0.03 | 0.03 | 45 | 1020.6 |
| 20260903202601 | 18 | 133 | 11.3 | 25.7 | 0.00 | 0.03 | 0.03 | 46 | 1020.6 |
| 20260903202320 | 18 | 147 | 12.9 | 25.7 | 0.00 | 0.03 | 0.03 | 44 | 1020.7 |
| 20260903201559 | 18 | 130 | 12.9 | 20.9 | 0.00 | 0.03 | 0.03 | 44 | 1020.7 |
| 20260903201100 | 19 | 118 | 11.3 | 29.0 | 0.00 | 0.03 | 0.03 | 44 | 1020.7 |
| 20260903200559 | 19 | 140 | 14.5 | 29.0 | 0.00 | 0.03 | 0.03 | 43 | 1020.6 |
| 20260903200100 | 19 | 62 | 8.0 | 17.7 | 0.00 | 0.03 | 0.03 | 44 | 1020.7 |
| 20260903195826 | 18 | 96 | 3.2 | 19.3 | 0.00 | 0.03 | 0.03 | 46 | 1020.8 |
| 20260903195102 | 18 | 114 | 9.7 | 19.3 | 0.00 | 0.03 | 0.03 | 43 | 1020.8 |
| 20260903194600 | 18 | 131 | 8.0 | 24.1 | 0.00 | 0.03 | 0.03 | 43 | 1020.8 |
| 20260903194319 | 19 | 141 | 12.9 | 24.1 | 0.00 | 0.03 | 0.03 | 42 | 1020.8 |
| 20260903193600 | 19 | 52 | 12.9 | 24.1 | 0.00 | 0.03 | 0.03 | 45 | 1020.7 |
| 20260903193100 | 19 | 140 | 9.7 | 19.3 | 0.00 | 0.03 | 0.03 | 45 | 1020.7 |
| 20260903192821 | 18 | 59 | 6.4 | 19.3 | 0.00 | 0.03 | 0.03 | 45 | 1020.7 |
| 20260903192321 | 18 | 114 | 11.3 | 19.3 | 0.00 | 0.03 | 0.03 | 47 | 1020.6 |
| 20260903191823 | 18 | 118 | 9.7 | 25.7 | 0.00 | 0.03 | 0.03 | 47 | 1020.5 |
| 20260903191101 | 18 | 133 | 8.0 | 25.7 | 0.00 | 0.03 | 0.03 | 46 | 1020.6 |
| 20260903190601 | 18 | 59 | 8.0 | 20.9 | 0.00 | 0.03 | 0.03 | 46 | 1020.6 |
| 20260903190105 | 18 | 61 | 9.7 | 20.9 | 0.00 | 0.03 | 0.03 | 47 | 1020.6 |
| 20260903185559 | 18 | 54 | 9.7 | 20.9 | 0.00 | 0.03 | 0.03 | 40 | 1020.6 |
| 20260903185100 | 18 | 120 | 9.7 | 20.9 | 0.00 | 0.03 | 0.03 | 40 | 1020.6 |
| 20260903184559 | 18 | 69 | 8.0 | 17.7 | 0.00 | 0.03 | 0.03 | 42 | 1020.6 |
| 20260903184059 | 18 | 104 | 9.7 | 17.7 | 0.00 | 0.03 | 0.03 | 42 | 1020.6 |
| 20260903183819 | 18 | 102 | 4.8 | 14.5 | 0.00 | 0.03 | 0.03 | 45 | 1020.7 |
| 20260903183056 | 18 | 76 | 8.0 | 11.3 | 0.00 | 0.03 | 0.03 | 45 | 1020.7 |
| 20260903182813 | 18 | 155 | 3.2 | 11.3 | 0.00 | 0.03 | 0.03 | 43 | 1020.7 |
| 20260903182318 | 18 | 128 | 6.4 | 16.1 | 0.00 | 0.03 | 0.03 | 46 | 1020.7 |
| 20260903181558 | 18 | 55 | 6.4 | 16.1 | 0.00 | 0.03 | 0.03 | 47 | 1020.7 |
| 20260903181058 | 18 | 107 | 6.4 | 14.5 | 0.00 | 0.03 | 0.03 | 46 | 1020.7 |
| 20260903180604 | 17 | 134 | 3.2 | 11.3 | 0.00 | 0.03 | 0.03 | 47 | 1020.8 |
| 20260903180318 | 17 | 207 | 3.2 | 11.3 | 0.00 | 0.03 | 0.03 | 46 | 1020.7 |
| 20260903175558 | 17 | 75 | 3.2 | 9.7 | 0.00 | 0.03 | 0.03 | 45 | 1020.7 |
| 20260903175057 | 17 | 89 | 3.2 | 8.0 | 0.00 | 0.03 | 0.03 | 46 | 1020.7 |
| 20260903174559 | 17 | 72 | 1.6 | 8.0 | 0.00 | 0.03 | 0.03 | 46 | 1020.8 |
| 20260903174057 | 17 | 125 | 3.2 | 6.4 | 0.00 | 0.03 | 0.03 | 44 | 1020.7 |
| 20260903173559 | 17 | 52 | 3.2 | 6.4 | 0.00 | 0.03 | 0.03 | 46 | 1020.7 |
| 20260903173057 | 17 | 79 | 1.6 | 6.4 | 0.00 | 0.03 | 0.03 | 43 | 1020.8 |
| 20260903172557 | 17 | 13 | 0.0 | 6.4 | 0.00 | 0.03 | 0.03 | 44 | 1020.6 |
| 20260903172057 | 17 | 66 | 3.2 | 6.4 | 0.00 | 0.03 | 0.03 | 47 | 1020.7 |
| 20260903171559 | 17 | 39 | 1.6 | 4.8 | 0.00 | 0.03 | 0.03 | 45 | 1020.6 |
| 20260903171058 | 17 | 214 | 0.0 | 4.8 | 0.00 | 0.03 | 0.03 | 48 | 1020.6 |
| 20260903170602 | 16 | 355 | 3.2 | 4.8 | 0.00 | 0.03 | 0.03 | 53 | 1020.6 |
| 20260903170055 | 16 | 62 | 1.6 | 11.3 | 0.00 | 0.03 | 0.03 | 53 | 1020.6 |
| 20260903165556 | 16 | 51 | 1.6 | 11.3 | 0.00 | 0.03 | 0.03 | 55 | 1020.5 |
| 20260903165056 | 16 | 350 | 0.0 | 4.8 | 0.00 | 0.03 | 0.03 | 57 | 1020.6 |
| 20260903164557 | 16 | 314 | 1.6 | 9.7 | 0.00 | 0.03 | 0.03 | 59 | 1020.5 |
| 20260903164056 | 15 | 233 | 1.6 | 9.7 | 0.00 | 0.03 | 0.03 | 57 | 1020.5 |
| 20260903163556 | 15 | 269 | 0.0 | 4.8 | 0.00 | 0.03 | 0.03 | 61 | 1020.5 |
| 20260903163055 | 15 | 11 | 3.2 | 6.4 | 0.00 | 0.03 | 0.03 | 62 | 1020.5 |
| 20260903162827 | 15 | 66 | 1.6 | 6.4 | 0.00 | 0.03 | 0.03 | 62 | 1020.5 |
| 20260903162056 | 15 | 345 | 1.6 | 4.8 | 0.00 | 0.03 | 0.03 | 69 | 1020.5 |
| 20260903161559 | 14 | 228 | 0.0 | 3.2 | 0.00 | 0.03 | 0.03 | 72 | 1020.6 |
| 20260903161100 | 14 | 340 | 1.6 | 3.2 | 0.00 | 0.03 | 0.03 | 72 | 1020.5 |
| 20260903160825 | 14 | 47 | 0.0 | 1.6 | 0.00 | 0.03 | 0.03 | 74 | 1020.5 |
| 20260903160534 | 14 | 110 | 0.0 | 1.6 | 0.00 | 0.03 | 0.03 | 80 | 1020.5 |
| 20260903155555 | 13 | 47 | 0.0 | 3.2 | 0.00 | 0.03 | 0.03 | 83 | 1020.6 |
| 20260903155055 | 13 | 155 | 0.0 | 3.2 | 0.00 | 0.03 | 0.03 | 85 | 1020.5 |
| 20260903154556 | 13 | 109 | 0.0 | 3.2 | 0.00 | 0.03 | 0.03 | 87 | 1020.6 |
| 20260903154055 | 12 | 109 | 0.0 | 3.2 | 0.00 | 0.03 | 0.03 | 88 | 1020.7 |
| 20260903153556 | 12 | 75 | 0.0 | 3.2 | 0.00 | 0.03 | 0.03 | 91 | 1020.6 |
| 20260903153053 | 11 | 85 | 0.0 | 3.2 | 0.00 | 0.03 | 0.03 | 91 | 1020.7 |
| 20260903152555 | 11 | 131 | 0.0 | 1.6 | 0.00 | 0.03 | 0.03 | 92 | 1020.8 |
| 20260903152322 | 11 | 131 | 0.0 | 1.6 | 0.00 | 0.03 | 0.03 | 92 | 1020.7 |
| 20260903151554 | 11 | 144 | 0.0 | 1.6 | 0.00 | 0.03 | 0.03 | 92 | 1020.6 |
| 20260903151054 | 11 | 125 | 0.0 | 1.6 | 0.00 | 0.03 | 0.03 | 92 | 1020.6 |
| 20260903150557 | 10 | 159 | 0.0 | 0.0 | 0.00 | 0.03 | 0.03 | 92 | 1020.6 |
| 20260903150053 | 10 | 159 | 0.0 | 0.0 | 0.00 | 0.03 | 0.03 | 93 | 1020.5 |
| 20260903145553 | 10 | 159 | 0.0 | 0.0 | 0.00 | 0.03 | 0.03 | 92 | 1020.6 |
| 20260903145054 | 10 | 159 | 0.0 | 0.0 | 0.00 | 0.03 | 0.03 | 92 | 1020.6 |
| 20260903144555 | 10 | 159 | 0.0 | 0.0 | 0.00 | 0.03 | 0.03 | 92 | 1020.5 |
| 20260903144054 | 10 | 159 | 0.0 | 0.0 | 0.00 | 0.03 | 0.03 | 92 | 1020.5 |
| 20260903143553 | 10 | 159 | 0.0 | 0.0 | 0.00 | 0.03 | 0.03 | 92 | 1020.4 |
| 20260903143054 | 10 | 159 | 0.0 | 0.0 | 0.00 | 0.03 | 0.03 | 92 | 1020.4 |
| 20260903142814 | 10 | 159 | 0.0 | 1.6 | 0.00 | 0.03 | 0.03 | 92 | 1020.3 |
| 20260903142053 | 10 | 159 | 0.0 | 1.6 | 0.00 | 0.03 | 0.03 | 92 | 1020.3 |
| 20260903141553 | 10 | 182 | 0.0 | 0.0 | 0.00 | 0.03 | 0.03 | 91 | 1020.3 |
| 20260903141054 | 10 | 182 | 0.0 | 0.0 | 0.00 | 0.03 | 0.03 | 91 | 1020.2 |
| 20260903140556 | 10 | 182 | 0.0 | 0.0 | 0.00 | 0.03 | 0.03 | 91 | 1020.2 |
| 20260903140317 | 10 | 182 | 0.0 | 0.0 | 0.00 | 0.03 | 0.03 | 92 | 1020.2 |
| 20260903135815 | 10 | 196 | 0.0 | 0.0 | 0.00 | 0.03 | 0.03 | 92 | 1020.1 |
| 20260903135052 | 10 | 196 | 0.0 | 0.0 | 0.00 | 0.03 | 0.03 | 92 | 1020.1 |
| 20260903134552 | 10 | 196 | 0.0 | 0.0 | 0.00 | 0.03 | 0.03 | 91 | 1019.9 |
| 20260903134544 | 10 | 196 | 0.0 | 0.0 | 0.00 | 0.03 | 0.03 | 91 | 1019.9 |
| 20260903133554 | 10 | 196 | 0.0 | 0.0 | 0.00 | 0.03 | 0.03 | 91 | 1019.9 |
| 20260903133051 | 10 | 196 | 0.0 | 0.0 | 0.00 | 0.03 | 0.03 | 91 | 1019.8 |
| 20260903132552 | 10 | 196 | 0.0 | 0.0 | 0.00 | 0.03 | 0.03 | 90 | 1019.8 |
| 20260903132051 | 10 | 196 | 0.0 | 0.0 | 0.00 | 0.03 | 0.03 | 90 | 1019.8 |
| 20260903131558 | 10 | 196 | 0.0 | 0.0 | 0.00 | 0.03 | 0.03 | 90 | 1019.8 |
| 20260903131053 | 10 | 196 | 0.0 | 0.0 | 0.00 | 0.03 | 0.03 | 90 | 1019.8 |
| 20260903130551 | 10 | 196 | 0.0 | 0.0 | 0.00 | 0.03 | 0.03 | 91 | 1019.8 |
| 20260903130051 | 10 | 196 | 0.0 | 0.0 | 0.00 | 0.03 | 0.03 | 91 | 1019.8 |
| 20260903125551 | 11 | 196 | 0.0 | 0.0 | 0.00 | 0.03 | 0.03 | 91 | 1019.6 |
| 20260903125312 | 10 | 196 | 0.0 | 0.0 | 0.00 | 0.03 | 0.03 | 91 | 1019.5 |
| 20260903124551 | 11 | 196 | 0.0 | 0.0 | 0.00 | 0.03 | 0.03 | 91 | 1019.5 |
| 20260903124052 | 11 | 196 | 0.0 | 0.0 | 0.00 | 0.03 | 0.03 | 91 | 1019.4 |
| 20260903123552 | 10 | 196 | 0.0 | 0.0 | 0.00 | 0.03 | 0.03 | 90 | 1019.5 |
| 20260903123544 | 10 | 196 | 0.0 | 0.0 | 0.00 | 0.03 | 0.03 | 90 | 1019.5 |
| 20260903122551 | 10 | 196 | 0.0 | 0.0 | 0.00 | 0.03 | 0.03 | 90 | 1019.4 |
| 20260903122050 | 10 | 196 | 0.0 | 0.0 | 0.00 | 0.03 | 0.03 | 91 | 1019.3 |
| 20260903121551 | 10 | 196 | 0.0 | 0.0 | 0.00 | 0.03 | 0.03 | 91 | 1019.4 |
| 20260903121050 | 10 | 196 | 0.0 | 0.0 | 0.00 | 0.03 | 0.03 | 91 | 1019.3 |
| 20260903120757 | 10 | 196 | 0.0 | 0.0 | 0.00 | 0.03 | 0.03 | 90 | 1019.4 |
| 20260903120644 | 10 | 196 | 0.0 | 0.0 | 0.00 | 0.03 | 0.03 | 91 | 1019.5 |
| 20260903120043 | 10 | 196 | 0.0 | 0.0 | 0.00 | 0.03 | 0.03 | 91 | 1019.5 |
| 20260903115050 | 10 | 197 | 0.0 | 0.0 | 0.00 | 0.03 | 0.03 | 91 | 1019.4 |
| 20260903114551 | 10 | 197 | 0.0 | 0.0 | 0.00 | 0.03 | 0.03 | 91 | 1019.3 |
| 20260903114049 | 10 | 196 | 0.0 | 0.0 | 0.00 | 0.03 | 0.03 | 91 | 1019.3 |
| 20260903113550 | 10 | 219 | 0.0 | 0.0 | 0.00 | 0.03 | 0.03 | 91 | 1019.3 |
| 20260903113050 | 11 | 227 | 0.0 | 0.0 | 0.00 | 0.03 | 0.03 | 91 | 1019.3 |
| 20260903112549 | 11 | 227 | 0.0 | 0.0 | 0.00 | 0.03 | 0.03 | 91 | 1019.3 |
| 20260903112049 | 11 | 227 | 0.0 | 0.0 | 0.00 | 0.03 | 0.03 | 90 | 1019.3 |
| 20260903111548 | 11 | 227 | 0.0 | 0.0 | 0.00 | 0.03 | 0.03 | 90 | 1019.2 |
| 20260903111050 | 11 | 227 | 0.0 | 0.0 | 0.00 | 0.03 | 0.03 | 89 | 1019.1 |
| 20260903110758 | 11 | 227 | 0.0 | 3.2 | 0.00 | 0.03 | 0.03 | 90 | 1019.1 |
| 20260903110648 | 11 | 227 | 0.0 | 3.2 | 0.00 | 0.03 | 0.03 | 89 | 1019.0 |
| 20260903105549 | 11 | 251 | 0.0 | 3.2 | 0.00 | 0.03 | 0.03 | 91 | 1019.0 |
| 20260903105048 | 11 | 245 | 0.0 | 3.2 | 0.00 | 0.03 | 0.03 | 91 | 1018.9 |
| 20260903104548 | 11 | 254 | 0.0 | 3.2 | 0.00 | 0.03 | 0.03 | 91 | 1018.7 |
| 20260903104048 | 11 | 166 | 0.0 | 0.0 | 0.00 | 0.03 | 0.03 | 91 | 1018.9 |
| 20260903103549 | 11 | 168 | 0.0 | 0.0 | 0.03 | 0.03 | 0.03 | 90 | 1019.0 |
| 20260903103049 | 11 | 168 | 0.0 | 1.6 | 0.03 | 0.03 | 0.03 | 90 | 1019.0 |
| 20260903102549 | 11 | 168 | 0.0 | 1.6 | 0.03 | 0.03 | 0.03 | 90 | 1019.2 |
| 20260903102047 | 11 | 166 | 0.0 | 0.0 | 0.03 | 0.03 | 0.03 | 90 | 1019.2 |
| 20260903101810 | 11 | 168 | 0.0 | 0.0 | 0.03 | 0.03 | 0.03 | 90 | 1019.1 |
| 20260903101047 | 11 | 168 | 0.0 | 0.0 | 0.03 | 0.03 | 0.03 | 90 | 1019.1 |
| 20260903100548 | 11 | 168 | 0.0 | 0.0 | 0.03 | 0.03 | 0.03 | 90 | 1019.0 |
| 20260903100314 | 11 | 168 | 0.0 | 0.0 | 0.03 | 0.03 | 0.03 | 89 | 1019.0 |
| 20260903095547 | 11 | 166 | 0.0 | 0.0 | 0.03 | 0.03 | 0.03 | 88 | 1019.1 |
| 20260903095048 | 12 | 165 | 0.0 | 0.0 | 0.03 | 0.03 | 0.03 | 87 | 1019.1 |
| 20260903094548 | 12 | 165 | 0.0 | 1.6 | 0.03 | 0.03 | 0.03 | 86 | 1019.0 |
| 20260903094049 | 12 | 165 | 0.0 | 3.2 | 0.03 | 0.03 | 0.03 | 82 | 1019.1 |
| 20260903094038 | 12 | 166 | 0.0 | 3.2 | 0.00 | 0.00 | 0.00 | 83 | 1019.1 |
| 20260903093048 | 12 | 185 | 0.0 | 1.6 | 0.00 | 0.00 | 0.00 | 83 | 1019.1 |
| 20260903092552 | 12 | 128 | 0.0 | 1.6 | 0.00 | 0.00 | 0.00 | 84 | 1019.0 |
| 20260903092047 | 12 | 144 | 0.0 | 1.6 | 0.00 | 0.00 | 0.00 | 82 | 1019.0 |
| 20260903091546 | 12 | 343 | 0.0 | 0.0 | 0.00 | 0.00 | 0.00 | 83 | 1019.0 |
| 20260903091048 | 12 | 343 | 0.0 | 0.0 | 0.00 | 0.00 | 0.00 | 82 | 1018.9 |
| 20260903090547 | 12 | 343 | 0.0 | 0.0 | 0.00 | 0.00 | 0.00 | 81 | 1018.9 |
| 20260903090045 | 13 | 343 | 0.0 | 0.0 | 0.00 | 0.00 | 0.00 | 78 | 1018.9 |
| 20260903085808 | 13 | 343 | 0.0 | 3.2 | 0.00 | 0.00 | 0.00 | 78 | 1018.8 |
| 20260903085046 | 13 | 343 | 0.0 | 4.8 | 0.00 | 0.00 | 0.00 | 77 | 1018.8 |
| 20260903084547 | 13 | 341 | 3.2 | 4.8 | 0.00 | 0.00 | 0.00 | 77 | 1018.7 |
| 20260903084045 | 13 | 252 | 0.0 | 0.0 | 0.00 | 0.00 | 0.00 | 76 | 1018.7 |
| 20260903083545 | 13 | 251 | 0.0 | 0.0 | 0.00 | 0.00 | 0.00 | 74 | 1018.6 |
| 20260903083529 | 13 | 251 | 0.0 | 0.0 | 0.00 | 0.00 | 0.00 | 74 | 1018.7 |
| 20260903082545 | 13 | 251 | 0.0 | 1.6 | 0.00 | 0.00 | 0.00 | 73 | 1018.6 |
| 20260903082048 | 13 | 251 | 0.0 | 1.6 | 0.00 | 0.00 | 0.00 | 74 | 1018.4 |
| 20260903081544 | 13 | 255 | 0.0 | 1.6 | 0.00 | 0.00 | 0.00 | 75 | 1018.4 |
| 20260903081048 | 13 | 255 | 1.6 | 1.6 | 0.00 | 0.00 | 0.00 | 74 | 1018.4 |
| 20260903080545 | 13 | 254 | 0.0 | 0.0 | 0.00 | 0.00 | 0.00 | 73 | 1018.4 |
| 20260903080046 | 13 | 254 | 0.0 | 0.0 | 0.00 | 0.00 | 0.00 | 73 | 1018.3 |
| 20260903075544 | 13 | 254 | 0.0 | 0.0 | 0.00 | 0.00 | 0.00 | 73 | 1018.4 |
| 20260903075044 | 13 | 254 | 0.0 | 0.0 | 0.00 | 0.00 | 0.00 | 73 | 1018.4 |
| 20260903074545 | 13 | 254 | 0.0 | 0.0 | 0.00 | 0.00 | 0.00 | 73 | 1018.4 |
| 20260903074043 | 13 | 254 | 0.0 | 0.0 | 0.00 | 0.00 | 0.00 | 73 | 1018.4 |
| 20260903073545 | 13 | 254 | 0.0 | 3.2 | 0.00 | 0.00 | 0.00 | 72 | 1018.4 |
| 20260903073044 | 13 | 254 | 0.0 | 3.2 | 0.00 | 0.00 | 0.00 | 72 | 1018.3 |
| 20260903072546 | 13 | 255 | 0.0 | 0.0 | 0.00 | 0.00 | 0.00 | 72 | 1018.4 |
| 20260903072044 | 13 | 255 | 0.0 | 0.0 | 0.00 | 0.00 | 0.00 | 72 | 1018.2 |
| 20260903071543 | 13 | 255 | 0.0 | 0.0 | 0.00 | 0.00 | 0.00 | 71 | 1018.0 |
| 20260903071310 | 13 | 255 | 0.0 | 0.0 | 0.00 | 0.00 | 0.00 | 70 | 1017.9 |
| 20260903070543 | 14 | 255 | 0.0 | 0.0 | 0.00 | 0.00 | 0.00 | 70 | 1017.9 |
| 20260903070044 | 14 | 255 | 0.0 | 0.0 | 0.00 | 0.00 | 0.00 | 69 | 1018.0 |
| 20260903065543 | 14 | 255 | 0.0 | 0.0 | 0.00 | 0.00 | 0.00 | 67 | 1018.0 |
| 20260903065045 | 14 | 255 | 0.0 | 0.0 | 0.00 | 0.00 | 0.00 | 67 | 1018.0 |
| 20260903064753 | 14 | 148 | 0.0 | 0.0 | 0.00 | 0.00 | 0.00 | 68 | 1018.0 |
| 20260903064637 | 14 | 148 | 0.0 | 0.0 | 0.00 | 0.00 | 0.00 | 67 | 1018.0 |
| 20260903063759 | 14 | 121 | 0.0 | 0.0 | 0.00 | 0.00 | 0.00 | 68 | 1017.9 |
| 20260903063042 | 15 | 121 | 0.0 | 0.0 | 0.00 | 0.00 | 0.00 | 67 | 1017.8 |
| 20260903062542 | 15 | 121 | 0.0 | 0.0 | 0.00 | 0.00 | 0.00 | 65 | 1017.8 |
| 20260903062042 | 15 | 121 | 0.0 | 0.0 | 0.00 | 0.00 | 0.00 | 62 | 1017.8 |
| 20260903061543 | 15 | 121 | 0.0 | 0.0 | 0.00 | 0.00 | 0.00 | 62 | 1017.7 |
| 20260903061042 | 15 | 121 | 0.0 | 3.2 | 0.00 | 0.00 | 0.00 | 61 | 1017.7 |
| 20260903060546 | 15 | 121 | 0.0 | 6.4 | 0.00 | 0.00 | 0.00 | 61 | 1017.6 |
| 20260903060041 | 15 | 172 | 3.2 | 6.4 | 0.00 | 0.00 | 0.00 | 61 | 1017.7 |
| 20260903055543 | 15 | 131 | 3.2 | 6.4 | 0.00 | 0.00 | 0.00 | 61 | 1017.7 |
| 20260903055041 | 15 | 144 | 4.8 | 9.7 | 0.00 | 0.00 | 0.00 | 60 | 1017.6 |
| 20260903054759 | 15 | 155 | 6.4 | 9.7 | 0.00 | 0.00 | 0.00 | 59 | 1017.5 |
| 20260903054041 | 15 | 121 | 3.2 | 6.4 | 0.00 | 0.00 | 0.00 | 60 | 1017.5 |
| 20260903053541 | 15 | 137 | 0.0 | 1.6 | 0.00 | 0.00 | 0.00 | 61 | 1017.5 |
| 20260903053041 | 15 | 137 | 0.0 | 0.0 | 0.00 | 0.00 | 0.00 | 60 | 1017.3 |
| 20260903052540 | 16 | 138 | 0.0 | 0.0 | 0.00 | 0.00 | 0.00 | 60 | 1017.3 |
| 20260903052307 | 16 | 138 | 0.0 | 0.0 | 0.00 | 0.00 | 0.00 | 58 | 1017.3 |
| 20260903051540 | 16 | 137 | 0.0 | 3.2 | 0.00 | 0.00 | 0.00 | 58 | 1017.2 |
| 20260903051042 | 16 | 138 | 1.6 | 3.2 | 0.00 | 0.00 | 0.00 | 57 | 1017.3 |
| 20260903050540 | 16 | 104 | 1.6 | 3.2 | 0.00 | 0.00 | 0.00 | 57 | 1017.3 |
| 20260903050041 | 16 | 207 | 0.0 | 3.2 | 0.00 | 0.00 | 0.00 | 57 | 1017.2 |
| 20260903045540 | 16 | 175 | 1.6 | 6.4 | 0.00 | 0.00 | 0.00 | 57 | 1017.2 |
| 20260903045039 | 16 | 113 | 3.2 | 6.4 | 0.00 | 0.00 | 0.00 | 57 | 1017.2 |
| 20260903044547 | 16 | 166 | 1.6 | 4.8 | 0.00 | 0.00 | 0.00 | 57 | 1017.1 |
| 20260903044304 | 16 | 140 | 3.2 | 6.4 | 0.00 | 0.00 | 0.00 | 57 | 1017.1 |
| 20260903043541 | 16 | 128 | 3.2 | 6.4 | 0.00 | 0.00 | 0.00 | 56 | 1017.0 |
| 20260903043040 | 16 | 118 | 3.2 | 6.4 | 0.00 | 0.00 | 0.00 | 56 | 1016.9 |
| 20260903042541 | 16 | 121 | 1.6 | 4.8 | 0.00 | 0.00 | 0.00 | 56 | 1017.0 |
| 20260903042044 | 16 | 145 | 1.6 | 4.8 | 0.00 | 0.00 | 0.00 | 55 | 1017.0 |
| 20260903041540 | 16 | 124 | 3.2 | 8.0 | 0.00 | 0.00 | 0.00 | 55 | 1017.0 |
| 20260903041040 | 16 | 90 | 3.2 | 8.0 | 0.00 | 0.00 | 0.00 | 54 | 1017.0 |
| 20260903040539 | 16 | 123 | 3.2 | 8.0 | 0.00 | 0.00 | 0.00 | 54 | 1017.0 |
| 20260903040043 | 16 | 123 | 3.2 | 9.7 | 0.00 | 0.00 | 0.00 | 53 | 1016.8 |
| 20260903035544 | 17 | 113 | 3.2 | 17.7 | 0.00 | 0.00 | 0.00 | 53 | 1016.7 |
| 20260903035041 | 17 | 114 | 6.4 | 17.7 | 0.00 | 0.00 | 0.00 | 52 | 1016.7 |
| 20260903034800 | 17 | 137 | 6.4 | 11.3 | 0.00 | 0.00 | 0.00 | 53 | 1016.4 |
| 20260903034040 | 17 | 124 | 4.8 | 11.3 | 0.00 | 0.00 | 0.00 | 53 | 1016.5 |
| 20260903033538 | 17 | 72 | 3.2 | 8.0 | 0.00 | 0.00 | 0.00 | 54 | 1016.4 |
| 20260903033306 | 17 | 109 | 0.0 | 8.0 | 0.00 | 0.00 | 0.00 | 54 | 1016.3 |
| 20260903032539 | 17 | 113 | 3.2 | 8.0 | 0.00 | 0.00 | 0.00 | 53 | 1016.3 |
| 20260903032038 | 17 | 86 | 1.6 | 11.3 | 0.00 | 0.00 | 0.00 | 53 | 1016.2 |
| 20260903031539 | 17 | 121 | 3.2 | 11.3 | 0.00 | 0.00 | 0.00 | 52 | 1016.2 |
| 20260903031038 | 17 | 78 | 4.8 | 11.3 | 0.00 | 0.00 | 0.00 | 51 | 1016.2 |
| 20260903030539 | 17 | 97 | 1.6 | 11.3 | 0.00 | 0.00 | 0.00 | 50 | 1016.1 |
| 20260903030038 | 17 | 104 | 3.2 | 11.3 | 0.00 | 0.00 | 0.00 | 50 | 1016.1 |
| 20260903025537 | 17 | 113 | 4.8 | 9.7 | 0.00 | 0.00 | 0.00 | 49 | 1016.1 |
| 20260903025037 | 18 | 118 | 3.2 | 14.5 | 0.00 | 0.00 | 0.00 | 48 | 1016.0 |
| 20260903024538 | 18 | 106 | 3.2 | 14.5 | 0.00 | 0.00 | 0.00 | 48 | 1016.1 |
| 20260903024037 | 18 | 161 | 4.8 | 14.5 | 0.00 | 0.00 | 0.00 | 47 | 1016.1 |
| 20260903023537 | 18 | 87 | 4.8 | 20.9 | 0.00 | 0.00 | 0.00 | 46 | 1016.1 |
| 20260903023038 | 18 | 110 | 4.8 | 30.6 | 0.00 | 0.00 | 0.00 | 45 | 1016.1 |
| 20260903022537 | 19 | 123 | 9.7 | 30.6 | 0.00 | 0.00 | 0.00 | 44 | 1016.0 |
| 20260903022039 | 19 | 140 | 14.5 | 29.0 | 0.00 | 0.00 | 0.00 | 43 | 1016.0 |
| 20260903021537 | 19 | 118 | 11.3 | 29.0 | 0.00 | 0.00 | 0.00 | 42 | 1015.9 |
| 20260903021036 | 19 | 89 | 8.0 | 25.7 | 0.00 | 0.00 | 0.00 | 42 | 1015.8 |
| 20260903020537 | 19 | 75 | 6.4 | 16.1 | 0.00 | 0.00 | 0.00 | 42 | 1015.8 |